Regional Weather Roundup
Issued by NWS

Home | Current Version | Previous Version | Graphics & Text | Print | Product List | Glossary Off
Versions: 1 2 3 4 5 6 7 8 9 10 11 12 13 14 15 16 17 18 19 20 21 22 23 24 25 26 27 28 29 30 31 32 33 34 35 36 37 38 39 40 41 42 43 44 45 46 47 48 49 50

000
ASUS43 KLSX 182107
RWRMO

WEATHER SUMMARY FOR MISSOURI
NATIONAL WEATHER SERVICE SPRINGFIELD MO
400 PM CDT WED APR 18 2018

NOTE: "FAIR" INDICATES FEW OR NO CLOUDS BELOW 12,000 FEET WITH NO
       SIGNIFICANT WEATHER AND/OR OBSTRUCTIONS TO VISIBILITY.
       CURRENT SKY AND/OR WEATHER CONDITIONS ARE NOT AVAILABLE FOR
       CHILLICOTHE AND FARMINGTON.

MOZ001>031-035>038-043-044-053-054-182200-
...NORTHERN AND WESTERN MISSOURI...

CITY           SKY/WX    TMP DP  RH WIND       PRES   REMARKS
KANSAS CTY INT CLOUDY    41  28  60 NW21G26   30.07R
KANSAS C DTWN  CLOUDY    44  29  55 NW16G30   30.07R
LEE`S SUMMIT   CLOUDY    43  30  60 NW23G35   30.06R
ST JOSEPH      CLOUDY    42  30  62 NW16G28   30.07S
CHILLICOTHE      N/A     41  28  60 NW10G25   30.03R
KIRKSVILLE     CLOUDY    37  30  75 NW17G26   29.97R WCI  27

$$
MOZ066>068-077>081-088>096-101>105-182200-
...SOUTHWEST MISSOURI...

CITY           SKY/WX    TMP DP  RH WIND       PRES   REMARKS
SPRINGFIELD    PTSUNNY   59  36  42 NW22G33   29.99R
JOPLIN         MOSUNNY   61  34  36 NW18G35   30.03R
BRANSON        MOSUNNY   64  37  36 NW17G28   29.98R

$$
MOZ032>034-039>042-045>050-055>058-069>072-182200-
...CENTRAL MISSOURI...

CITY           SKY/WX    TMP DP  RH WIND       PRES   REMARKS
COLUMBIA       CLOUDY    46  33  60 W21G35    29.97R
JEFFERSON CITY CLOUDY    50  33  52 W22G32    29.97R
ROLLA          CLOUDY    52  37  56 W21G37    29.93
SEDALIA        CLOUDY    47  34  60 NW15G29   30.02R
WHITEMAN AFB   CLOUDY    46  30  55 NW17G25   29.98R
WARRENSBURG    CLOUDY    45  32  61 W16G23    30.05R
OSAGE BEACH    CLOUDY    50  34  54 W15G29    29.99R

$$
MOZ051-052-059>065-182200-
...EAST CENTRAL MISSOURI...

CITY           SKY/WX    TMP DP  RH WIND       PRES   REMARKS
ST LOUIS INTL  CLOUDY    59  38  45 NW28G43   29.83R
SPIRIT OF STL  CLOUDY    58  38  47 NW25G39   29.85R
ST CHARLES     CLOUDY    58  38  47 NW28G41   29.85R

$$
MOZ072>076-082>087-097>100-106>115-182200-
...SOUTH CENTRAL AND SOUTHEAST MISSOURI...

CITY           SKY/WX    TMP DP  RH WIND       PRES   REMARKS
CAPE GIRARDEAU FAIR      76  41  28 W22G37    29.75R
FARMINGTON     SUNNY     67  39  35 W16G26    29.82R
POPLAR BLUFF   FAIR      77  37  23 SW21G30   29.80R
WEST PLAINS    MOSUNNY   66  37  34 W20G33    29.92R

$$




USA.gov is the U.S. government's official web portal to all federal, state and local government web resources and services.